Terminal Aerodrome Forecast
Issued by NWS Wilmington, OH

Current Version | Previous Version | Graphics & Text | Print | Product List | Glossary On
Versions: 1 2 3 4 5 6 7 8 9 10 11 12 13 14 15 16 17 18 19 20 21 22 23 24 25 26 27 28 29 30 31 32 33 34 35 36 37 38
000
FTUS41 KILN 181700
TAFCVG
TAF
KCVG 181740Z 1818/1924 08007KT P6SM SCT150 BKN200 OVC250
     FM182300 07009KT P6SM SCT120 OVC250
     FM190800 09012KT P6SM VCSH FEW050 OVC120
     FM191200 10012G20KT P6SM -SHRA SCT040 OVC060
     FM191500 12014G24KT 5SM -SHRA OVC025
     FM192000 18012G22KT P6SM VCTS OVC025CB=

USA.gov is the U.S. government's official web portal to all federal, state and local government web resources and services.